Weather History for Gunnison, CO

Change the Weather History Date:

Wednesday, August 7, 2013

  Actual Average Record
Temperature  
Mean Temperature 56 °F -  
Max Temperature 62 °F 76 °F 82 °F (1998)
Min Temperature 51 °F 43 °F 39 °F (1996)
Degree Days  
Heating Degree Days 8    
Growing Degree Days 6 (Base 50)    
Moisture  
Dew Point 46 °F    
Average Humidity 71    
Maximum Humidity 88    
Minimum Humidity 52    
Precipitation  
Precipitation 0.12 in - - ()
Sea Level Pressure  
Sea Level Pressure 30.32 in    
Wind  
Wind Speed 4 mph (NE)    
Max Wind Speed 14 mph    
Max Gust Speed 17 mph    
Visibility 10 miles    
Events      
Averages and records for this station are not official NWS values.
T = Trace of Precipitation, MM = Missing Value Source: NWS Daily Summary

Daily Weather History Graph

Daily Weather History Graph

Search for Another Location

Airport:

Trip Planner

Search our weather history database for the weather conditions in past years. The results will help you decide how hot, cold, wet, or windy it might be!

Date:

Astronomy

Aug. 07, 2013 Rise Set
Actual Time 6:15 AM MDT 8:11 PM MDT
Civil Twilight 5:46 AM MDT 8:40 PM MDT
Nautical Twilight 5:10 AM MDT 9:15 PM MDT
Astronomical Twilight 4:32 AM MDT 9:52 PM MDT
Moon 7:05 AM MDT (8/7) 8:21 PM MDT (8/7)
Length of Visible Light 14h 53m
Length of Day
13h 56m
New Moon, 1% of the Moon is Illuminated
Aug 7
New Moon
Aug 14
First Quarter
Aug 20
Full
Aug 28
Last Quarter
Sep 5
New

Hourly Weather History & Observations

Time (MDT) Temp. Dew Point Humidity Pressure Visibility Wind Dir Wind Speed Gust Speed Precip Events Conditions
12:35 AM 53.6 °F 48.2 °F 82% 30.36 in 10.0 mi Calm Calm - N/A   Partly Cloudy
12:55 AM 53.6 °F 46.4 °F 77% 30.36 in 10.0 mi NNE 4.6 mph - N/A   Partly Cloudy
1:15 AM 53.6 °F 46.4 °F 77% 30.35 in 10.0 mi North 5.8 mph - N/A   Clear
1:35 AM 51.8 °F 46.4 °F 82% 30.34 in 10.0 mi North 5.8 mph - N/A   Clear
1:55 AM 51.8 °F 46.4 °F 82% 30.34 in 10.0 mi North 9.2 mph - N/A   Partly Cloudy
2:15 AM 51.8 °F 46.4 °F 82% 30.34 in 10.0 mi North 5.8 mph - N/A   Mostly Cloudy
2:35 AM 51.8 °F 44.6 °F 76% 30.33 in 10.0 mi NNW 5.8 mph - N/A   Mostly Cloudy
2:55 AM 51.8 °F 44.6 °F 76% 30.32 in 10.0 mi NNE 5.8 mph - N/A   Scattered Clouds
3:15 AM 51.8 °F 44.6 °F 76% 30.32 in 10.0 mi North 5.8 mph - N/A   Mostly Cloudy
3:35 AM 51.8 °F 44.6 °F 76% 30.32 in 10.0 mi Calm Calm - N/A   Partly Cloudy
4:15 AM 53.6 °F 44.6 °F 72% 30.31 in 10.0 mi NNE 3.5 mph - N/A   Scattered Clouds
4:35 AM 51.8 °F 44.6 °F 76% 30.31 in 10.0 mi NNE 3.5 mph - N/A   Clear
4:55 AM 51.8 °F 44.6 °F 76% 30.31 in 10.0 mi NNE 3.5 mph - N/A   Mostly Cloudy
5:15 AM 51.8 °F 44.6 °F 76% 30.31 in 10.0 mi Calm Calm - N/A   Overcast
5:35 AM 51.8 °F 44.6 °F 76% 30.31 in 10.0 mi NNW 4.6 mph - N/A   Overcast
6:15 AM 51.8 °F 46.4 °F 82% 30.32 in 10.0 mi Calm Calm - N/A   Overcast
6:35 AM 51.8 °F 46.4 °F 82% 30.33 in 10.0 mi North 4.6 mph - N/A   Overcast
6:55 AM 51.8 °F 46.4 °F 82% 30.33 in 10.0 mi North 5.8 mph - N/A   Overcast
7:15 AM 51.8 °F 46.4 °F 82% 30.34 in 9.0 mi North 3.5 mph - N/A   Overcast
7:35 AM 51.8 °F 46.4 °F 82% 30.34 in 7.0 mi NNE 3.5 mph - N/A   Mostly Cloudy
7:55 AM 51.8 °F 46.4 °F 82% 30.34 in 10.0 mi Calm Calm - 0.04 in   Overcast
8:15 AM 51.8 °F 46.4 °F 82% 30.35 in 10.0 mi NNE 4.6 mph - 0.01 in   Overcast
8:35 AM 51.8 °F 46.4 °F 82% 30.35 in 10.0 mi Calm Calm - 0.02 in   Overcast
8:55 AM 51.8 °F 46.4 °F 82% 30.36 in 10.0 mi Calm Calm - 0.02 in   Overcast
9:15 AM 51.8 °F 46.4 °F 82% 30.37 in 10.0 mi Calm Calm - 0.01 in   Overcast
9:35 AM 51.8 °F 46.4 °F 82% 30.36 in 9.0 mi North 5.8 mph - 0.04 in   Overcast
9:55 AM 51.8 °F 48.2 °F 88% 30.36 in 10.0 mi Calm Calm - 0.06 in   Overcast
10:15 AM 53.6 °F 48.2 °F 82% 30.36 in 10.0 mi NNE 5.8 mph - N/A   Overcast
10:35 AM 53.6 °F 48.2 °F 82% 30.37 in 10.0 mi North 3.5 mph - N/A   Overcast
10:55 AM 55.4 °F 48.2 °F 77% 30.36 in 10.0 mi NNE 8.1 mph - N/A   Overcast
11:15 AM 55.4 °F 48.2 °F 77% 30.36 in 10.0 mi NNE 5.8 mph - N/A   Overcast
11:55 AM 57.2 °F 46.4 °F 67% 30.35 in 10.0 mi North 11.5 mph 16.1 mph N/A   Overcast
12:15 PM 57.2 °F 46.4 °F 67% 30.35 in 10.0 mi NE 10.4 mph - N/A   Overcast
12:35 PM 59.0 °F 44.6 °F 59% 30.35 in 10.0 mi NNE 10.4 mph 17.3 mph N/A   Overcast
12:55 PM 59.0 °F 42.8 °F 55% 30.34 in 10.0 mi North 13.8 mph - N/A   Overcast
1:15 PM 59.0 °F 42.8 °F 55% 30.35 in 10.0 mi NNE 10.4 mph - N/A   Overcast
1:35 PM 59.0 °F 42.8 °F 55% 30.36 in 10.0 mi NE 4.6 mph - N/A   Overcast
1:55 PM 57.2 °F 42.8 °F 59% 30.36 in 10.0 mi NE 5.8 mph - N/A   Overcast
2:15 PM 57.2 °F 44.6 °F 63% 30.35 in 10.0 mi ENE 4.6 mph - N/A   Overcast
2:35 PM 55.4 °F 48.2 °F 77% 30.35 in 10.0 mi ENE 8.1 mph - N/A   Overcast
2:55 PM 57.2 °F 48.2 °F 72% 30.34 in 10.0 mi ESE 6.9 mph - N/A   Mostly Cloudy
3:15 PM 57.2 °F 46.4 °F 67% 30.33 in 10.0 mi East 9.2 mph - N/A   Partly Cloudy
3:35 PM 60.8 °F 48.2 °F 63% 30.32 in 10.0 mi SE 5.8 mph - N/A   Partly Cloudy
3:55 PM 60.8 °F 44.6 °F 55% 30.31 in 10.0 mi East 9.2 mph - N/A   Clear
4:15 PM 60.8 °F 44.6 °F 55% 30.31 in 10.0 mi SE 6.9 mph - N/A   Scattered Clouds
4:35 PM 62.6 °F 44.6 °F 52% 30.31 in 10.0 mi ESE 6.9 mph - N/A   Partly Cloudy
4:55 PM 62.6 °F 44.6 °F 52% 30.30 in 10.0 mi SE 8.1 mph - N/A   Partly Cloudy
5:15 PM 62.6 °F 46.4 °F 55% 30.30 in 10.0 mi East 4.6 mph - N/A   Clear
5:35 PM 62.6 °F 44.6 °F 52% 30.29 in 10.0 mi East 6.9 mph - N/A   Scattered Clouds
5:55 PM 62.6 °F 44.6 °F 52% 30.29 in 10.0 mi East 9.2 mph - N/A   Scattered Clouds
6:15 PM 62.6 °F 46.4 °F 55% 30.29 in 10.0 mi East 8.1 mph - N/A   Mostly Cloudy
6:35 PM 62.6 °F 44.6 °F 52% 30.28 in 10.0 mi ESE 6.9 mph - N/A   Overcast
6:55 PM 62.6 °F 46.4 °F 55% 30.28 in 10.0 mi ESE 4.6 mph - N/A   Overcast
7:15 PM 62.6 °F 46.4 °F 55% 30.28 in 10.0 mi ENE 4.6 mph - N/A   Overcast
7:35 PM 60.8 °F 46.4 °F 59% 30.28 in 10.0 mi East 3.5 mph - N/A   Scattered Clouds
7:55 PM 60.8 °F 46.4 °F 59% 30.28 in 10.0 mi NE 4.6 mph - N/A   Clear
8:15 PM 57.2 °F 46.4 °F 67% 30.28 in 10.0 mi Calm Calm - N/A   Scattered Clouds
8:35 PM 57.2 °F 46.4 °F 67% 30.29 in 10.0 mi NNE 3.5 mph - N/A   Partly Cloudy
8:55 PM 57.2 °F 48.2 °F 72% 30.29 in 10.0 mi North 4.6 mph - N/A   Clear
9:15 PM 55.4 °F 48.2 °F 77% 30.30 in 10.0 mi Calm Calm - N/A   Clear
9:35 PM 55.4 °F 46.4 °F 72% 30.30 in 10.0 mi NNW 6.9 mph - N/A   Clear
9:55 PM 55.4 °F 46.4 °F 72% 30.30 in 10.0 mi North 5.8 mph - N/A   Clear
10:15 PM 53.6 °F 46.4 °F 77% 30.31 in 10.0 mi Calm Calm - N/A   Clear
10:35 PM 53.6 °F 44.6 °F 72% 30.30 in 10.0 mi Calm Calm - N/A   Clear
10:55 PM 53.6 °F 44.6 °F 72% 30.30 in 10.0 mi North 4.6 mph - N/A   Clear
11:15 PM 53.6 °F 44.6 °F 72% 30.30 in 10.0 mi North 5.8 mph - N/A   Clear
11:35 PM 51.8 °F 44.6 °F 76% 30.30 in 10.0 mi North 3.5 mph - N/A   Clear
11:55 PM 51.8 °F 44.6 °F 76% 30.30 in 10.0 mi North 4.6 mph - N/A   Clear